Location: Newark
(49.8969°N, 3.3422°E)
Time: 20:51:38
(UTC+00:00)

Vanguard 1 Rocket - Pass Details

Date: 22 January 2020
Orbit: 650 x 4226 km, 34.3° (Epoch: 26 February)

Event Time Altitude Azimuth Distance (km) Brightness Sun altitude
Rises 10:58:35 0° 234° (SW) 4,548 11.3 19.1°
Reaches altitude 10° 11:01:17 10° 226° (SW) 3,920 11.1 19.2°
Maximum altitude 11:11:18 40° 161° (SSE) 3,312 11.9 19.6°
Drops below altitude 10° 11:28:57 10° 102° (ESE) 6,770 12.1 20.1°
Sets 11:35:33 0° 97° (E) 8,168 12.4 20.2°
